Regional Weather Roundup
Issued by NWS Kansas City/Pleasant Hill, MO

Home | Current Version | Previous Version | Graphics & Text | Print | Product List | Glossary Off
Versions: 1 2 3 4 5 6 7 8 9 10 11 12 13 14 15 16 17 18 19 20 21 22 23 24 25 26 27 28 29 30 31 32 33 34 35 36 37 38 39 40 41 42 43 44 45 46 47 48 49 50

000
ASUS43 KEAX 180210
RWREAX

WEATHER ROUNDUP FOR EASTERN KANSAS AND NORTHWEST MISSOURI
NATIONAL WEATHER SERVICE KANSAS CITY/PLEASANT HILL MO
800 PM CST SUN DEC 17 2017

KSZ040-057-103>105-MOZ028-029-037-043-180300-
...KANSAS CITY METROPOLITAN AREA...

CITY           SKY/WX    TMP DP  RH WIND       PRES   REMARKS
K.C. INTL      CLOUDY    45  42  89 S10       30.01S
K.C. DOWNTOWN  MOCLDY    45  40  82 S7        30.01F
LEES SUMMIT    CLOUDY    45  43  93 SW8       30.03S
OLATHE - IXD   CLEAR     40  40 100 S6        30.03S FOG
OLATHE - OJC   PTCLDY    40  40 100 S5        30.02S
LAWRENCE       CLEAR     44  42  93 S6        30.02S

$$

MOZ001>008-011>017-020>025-030>033-038>040-044>046-053-054-180300-
...NORTHERN AND CENTRAL MISSOURI...

CITY           SKY/WX    TMP DP  RH WIND       PRES   REMARKS
ST. JOSEPH     FOG       38  38 100 NW3       30.02R VSB 1/4
MOSBY          CLOUDY    45  43  93 S5        30.02F
WARRENSBURG    CLOUDY    43  43 100 S7        30.04S
WHITEMAN AFB   CLOUDY    44  43  94 S8        30.00S
CLINTON        CLOUDY    45  43  93 SW7       30.07S
SEDALIA        CLOUDY    46  46 100 SW7       30.07R
WARSAW         NOT AVBL
CHILLICOTHE      N/A     45  44  97 S5        30.03R
KIRKSVILLE     CLOUDY    44  32  62 SW9       30.02R HAZE

$$

MOZ041-047>049-056>058-063>065-088>090-097-180300-
...EASTERN AND SOUTHERN MISSOURI...

CITY           SKY/WX    TMP DP  RH WIND       PRES   REMARKS
ST. LOUIS INTL CLOUDY    49  43  80 SW9       30.07R
SPIRIT OF STL  CLOUDY    49  43  80 SW6       30.06R
COLUMBIA       CLOUDY    45  44  97 SW8       30.06R
JEFFERSON CITY CLOUDY    47  43  86 SW6       30.07S
ROLLA          CLOUDY    45  45 100 W8        30.07S FOG
OSAGE BEACH    CLOUDY    46  42  86 SW5       30.08S
SPRINGFIELD    CLOUDY    46  45  96 SW3       30.06S
BRANSON        FOG       45  45 100 CALM      30.09R VSB 1/2
JOPLIN         CLOUDY    45  45 100 CALM      30.08S FOG
WEST PLAINS    CLOUDY    45  44  97 S6        30.09S FOG

$$

IAZ060-094-KSZ022-034>040-054-083-096-NEZ052-066-093-180300-
...KANSAS...SOUTHEAST NEBRASKA AND IOWA...

CITY           SKY/WX    TMP DP  RH WIND       PRES   REMARKS
TOPEKA         CLOUDY    47  44  90 S9        30.00S
MANHATTAN      CLOUDY    44  36  73 NE5       30.01R
EMPORIA        CLEAR     41  38  89 S8        30.02R
CHANUTE        CLOUDY    45  43  93 S7        30.06S
WICHITA        PTCLDY    38  37  97 S6        30.02F WCI  33
OMAHA          PTCLDY    29  23  78 CALM      30.02R
LINCOLN        PTCLDY    32  27  81 CALM      30.02R
FALLS CITY     CLOUDY    38  36  92 N3        30.02R FOG
LAMONI         CLOUDY    40  37  89 W9        29.99R WCI  34
DES MOINES     CLOUDY    36  31  82 W7        29.99R WCI  30

$$




USA.gov is the U.S. government's official web portal to all federal, state and local government web resources and services.